contact:dominique.lefevre@mio.osupytheas.fr, maurice.libes@osupytheas.fr, didier.mallarino@osupytheas.fr
Project:EMSO http://www.emso-fr.org/EMSO-France
Depth: 2436.0 m
Title:EMSO Ligure Ouest : Data MII capteur MICROCAT
DateTime_Computer,Latitude,Longitude,Temperature,Conductivity,Pressure,DateTime_Instrument
DateTime_Computer,Latitude,Longitude,degC,S m-1,dbar,DateTime_Instrument
2020-03-03T00:00:02Z,42.805,6.029,13.2971,4.59973,2470.04,2020-3-03T02:00:38Z
2020-03-03T00:03:05Z,42.805,6.029,13.2996,4.60007,2470.1,2020-3-03T02:03:41Z
2020-03-03T00:06:08Z,42.805,6.029,13.2994,4.60001,2470.053,2020-3-03T02:06:44Z
2020-03-03T00:09:11Z,42.805,6.029,13.2996,4.59984,2470.053,2020-3-03T02:09:47Z
2020-03-03T00:12:14Z,42.805,6.029,13.2990,4.59991,2470.1,2020-3-03T02:12:51Z
2020-03-03T00:15:18Z,42.805,6.029,13.2993,4.59998,2470.063,2020-3-03T02:15:54Z
2020-03-03T00:18:21Z,42.805,6.029,13.2999,4.60000,2470.087,2020-3-03T02:18:57Z
2020-03-03T00:21:24Z,42.805,6.029,13.2979,4.59996,2470.087,2020-3-03T02:22:00Z
2020-03-03T00:24:27Z,42.805,6.029,13.3000,4.60019,2470.124,2020-3-03T02:25:04Z
2020-03-03T00:27:31Z,42.805,6.029,13.2997,4.60013,2470.1,2020-3-03T02:28:07Z
2020-03-03T00:30:34Z,42.805,6.029,13.2991,4.60017,2470.087,2020-3-03T02:31:10Z
2020-03-03T00:33:38Z,42.805,6.029,13.2992,4.60012,2470.1,2020-3-03T02:34:14Z
2020-03-03T00:36:41Z,42.805,6.029,13.2986,4.60017,2470.077,2020-3-03T02:37:17Z
2020-03-03T00:39:44Z,42.805,6.029,13.3003,4.60038,2470.087,2020-3-03T02:40:20Z
2020-03-03T00:42:47Z,42.805,6.029,13.3002,4.60036,2470.087,2020-3-03T02:43:23Z
2020-03-03T00:45:50Z,42.805,6.029,13.2998,4.60026,2470.124,2020-3-03T02:46:27Z
2020-03-03T00:48:54Z,42.805,6.029,13.3006,4.60010,2470.077,2020-3-03T02:49:30Z
2020-03-03T00:51:57Z,42.805,6.029,13.2992,4.60018,2470.077,2020-3-03T02:52:33Z
2020-03-03T00:55:00Z,42.805,6.029,13.2983,4.60023,2470.053,2020-3-03T02:55:36Z
2020-03-03T00:58:03Z,42.805,6.029,13.2981,4.60040,2470.04,2020-3-03T02:58:40Z
2020-03-03T01:01:07Z,42.805,6.029,13.2990,4.60018,2470.11,2020-3-03T03:01:43Z
2020-03-03T01:04:10Z,42.805,6.029,13.2998,4.59996,2470.087,2020-3-03T03:04:46Z
2020-03-03T01:07:13Z,42.805,6.029,13.2987,4.60017,2470.1,2020-3-03T03:07:49Z
2020-03-03T01:10:16Z,42.805,6.029,13.3003,4.60017,2470.077,2020-3-03T03:10:52Z
2020-03-03T01:13:19Z,42.805,6.029,13.2986,4.60004,2470.063,2020-3-03T03:13:56Z
2020-03-03T01:16:23Z,42.805,6.029,13.2979,4.60019,2470.063,2020-3-03T03:16:59Z
2020-03-03T01:19:26Z,42.805,6.029,13.2979,4.60012,2470.077,2020-3-03T03:20:02Z
2020-03-03T01:22:29Z,42.805,6.029,13.2982,4.60022,2470.087,2020-3-03T03:23:05Z
2020-03-03T01:25:32Z,42.805,6.029,13.2990,4.60022,2470.077,2020-3-03T03:26:08Z
2020-03-03T01:28:35Z,42.805,6.029,13.3003,4.60032,2470.063,2020-3-03T03:29:12Z
2020-03-03T01:31:39Z,42.805,6.029,13.2981,4.60030,2470.063,2020-3-03T03:32:15Z
2020-03-03T01:34:42Z,42.805,6.029,13.2980,4.60043,2470.063,2020-3-03T03:35:18Z
2020-03-03T01:37:45Z,42.805,6.029,13.2982,4.60041,2470.077,2020-3-03T03:38:21Z
2020-03-03T01:40:48Z,42.805,6.029,13.2985,4.60040,2470.077,2020-3-03T03:41:24Z
2020-03-03T01:43:51Z,42.805,6.029,13.2982,4.60031,2470.053,2020-3-03T03:44:28Z
2020-03-03T01:46:55Z,42.805,6.029,13.2981,4.60037,2470.063,2020-3-03T03:47:31Z
2020-03-03T01:49:58Z,42.805,6.029,13.2996,4.60036,2470.11,2020-3-03T03:50:34Z
2020-03-03T01:53:01Z,42.805,6.029,13.2982,4.60019,2470.04,2020-3-03T03:53:37Z
2020-03-03T01:56:04Z,42.805,6.029,13.2982,4.60038,2470.1,2020-3-03T03:56:40Z
2020-03-03T01:59:08Z,42.805,6.029,13.2990,4.60033,2470.063,2020-3-03T03:59:44Z
2020-03-03T02:02:11Z,42.805,6.029,13.2976,4.60029,2470.1,2020-3-03T04:02:47Z
2020-03-03T02:05:14Z,42.805,6.029,13.2982,4.60027,2470.087,2020-3-03T04:05:50Z
2020-03-03T02:08:17Z,42.805,6.029,13.2983,4.60028,2470.063,2020-3-03T04:08:53Z
2020-03-03T02:11:21Z,42.805,6.029,13.2985,4.60044,2470.077,2020-3-03T04:11:57Z
2020-03-03T02:14:24Z,42.805,6.029,13.2982,4.60022,2470.04,2020-3-03T04:15:00Z
2020-03-03T02:17:27Z,42.805,6.029,13.2979,4.60017,2470.04,2020-3-03T04:18:03Z
2020-03-03T02:20:30Z,42.805,6.029,13.2986,4.60031,2470.063,2020-3-03T04:21:06Z
2020-03-03T02:23:33Z,42.805,6.029,13.2989,4.60013,2470.053,2020-3-03T04:24:10Z
2020-03-03T02:26:37Z,42.805,6.029,13.2982,4.60039,2470.04,2020-3-03T04:27:13Z
2020-03-03T02:29:40Z,42.805,6.029,13.2994,4.60025,2470.017,2020-3-03T04:30:16Z
2020-03-03T02:32:43Z,42.805,6.029,13.2981,4.60002,2470.063,2020-3-03T04:33:19Z
2020-03-03T02:35:46Z,42.805,6.029,13.2976,4.60021,2470.053,2020-3-03T04:36:22Z
2020-03-03T02:38:49Z,42.805,6.029,13.2983,4.60039,2470.053,2020-3-03T04:39:26Z
2020-03-03T02:41:53Z,42.805,6.029,13.2989,4.60028,2470.077,2020-3-03T04:42:29Z
2020-03-03T02:44:56Z,42.805,6.029,13.2978,4.60025,2470.04,2020-3-03T04:45:32Z
2020-03-03T02:47:59Z,42.805,6.029,13.2983,4.60034,2470.04,2020-3-03T04:48:35Z
2020-03-03T02:51:02Z,42.805,6.029,13.2978,4.60022,2470.077,2020-3-03T04:51:39Z
2020-03-03T02:54:06Z,42.805,6.029,13.2984,4.60017,2470.077,2020-3-03T04:54:42Z
2020-03-03T02:57:09Z,42.805,6.029,13.2977,4.60014,2470.063,2020-3-03T04:57:45Z
2020-03-03T03:00:12Z,42.805,6.029,13.2975,4.60017,2470.077,2020-3-03T05:00:48Z
2020-03-03T03:03:15Z,42.805,6.029,13.2972,4.60011,2470.053,2020-3-03T05:03:51Z
2020-03-03T03:06:18Z,42.805,6.029,13.2996,4.60031,2470.017,2020-3-03T05:06:55Z
2020-03-03T03:09:22Z,42.805,6.029,13.2993,4.59986,2470.077,2020-3-03T05:09:58Z
2020-03-03T03:12:25Z,42.805,6.029,13.2987,4.59999,2470.077,2020-3-03T05:13:01Z
2020-03-03T03:15:28Z,42.805,6.029,13.2981,4.60011,2470.077,2020-3-03T05:16:04Z
2020-03-03T03:18:31Z,42.805,6.029,13.2980,4.60000,2470.017,2020-3-03T05:19:07Z
2020-03-03T03:21:35Z,42.805,6.029,13.2979,4.60024,2470.017,2020-3-03T05:22:11Z
2020-03-03T03:24:38Z,42.805,6.029,13.2986,4.60009,2470.03,2020-3-03T05:25:14Z
2020-03-03T03:27:41Z,42.805,6.029,13.2983,4.60003,2470.077,2020-3-03T05:28:17Z
2020-03-03T03:30:44Z,42.805,6.029,13.2990,4.60009,2470.03,2020-3-03T05:31:20Z
2020-03-03T03:33:47Z,42.805,6.029,13.2976,4.59994,2470.053,2020-3-03T05:34:23Z
2020-03-03T03:36:50Z,42.805,6.029,13.2976,4.59992,2470.053,2020-3-03T05:37:27Z
2020-03-03T03:39:54Z,42.805,6.029,13.2979,4.60009,2470.077,2020-3-03T05:40:30Z
2020-03-03T03:42:57Z,42.805,6.029,13.2983,4.60019,2470.04,2020-3-03T05:43:33Z
2020-03-03T03:46:00Z,42.805,6.029,13.2988,4.60016,2470.03,2020-3-03T05:46:36Z
2020-03-03T03:49:03Z,42.805,6.029,13.2983,4.60008,2470.053,2020-3-03T05:49:40Z
2020-03-03T03:52:07Z,42.805,6.029,13.2983,4.60028,2470.063,2020-3-03T05:52:43Z
2020-03-03T03:55:10Z,42.805,6.029,13.2989,4.60038,2470.063,2020-3-03T05:55:46Z
2020-03-03T03:58:13Z,42.805,6.029,13.2986,4.60008,2470.04,2020-3-03T05:58:49Z
2020-03-03T04:01:17Z,42.805,6.029,13.2979,4.60033,2470.04,2020-3-03T06:01:53Z
2020-03-03T04:04:20Z,42.805,6.029,13.2990,4.60035,2470.04,2020-3-03T06:04:56Z
2020-03-03T04:07:23Z,42.805,6.029,13.2986,4.60007,2470.03,2020-3-03T06:07:59Z
2020-03-03T04:10:26Z,42.805,6.029,13.2983,4.60018,2470.053,2020-3-03T06:11:03Z
2020-03-03T04:13:29Z,42.805,6.029,13.2990,4.60027,2470.04,2020-3-03T06:14:06Z
2020-03-03T04:16:33Z,42.805,6.029,13.2983,4.59996,2470.017,2020-3-03T06:17:09Z
2020-03-03T04:19:36Z,42.805,6.029,13.2984,4.60013,2470.017,2020-3-03T06:20:12Z
2020-03-03T04:22:39Z,42.805,6.029,13.2993,4.60029,2469.993,2020-3-03T06:23:15Z
2020-03-03T04:25:42Z,42.805,6.029,13.2980,4.60019,2470.03,2020-3-03T06:26:19Z
2020-03-03T04:28:46Z,42.805,6.029,13.2978,4.59998,2470.007,2020-3-03T06:29:22Z
2020-03-03T04:31:49Z,42.805,6.029,13.2977,4.59993,2470.007,2020-3-03T06:32:25Z
2020-03-03T04:34:52Z,42.805,6.029,13.2976,4.60006,2470.063,2020-3-03T06:35:28Z
2020-03-03T04:37:55Z,42.805,6.029,13.2985,4.60030,2470.017,2020-3-03T06:38:31Z
2020-03-03T04:40:58Z,42.805,6.029,13.2985,4.60016,2470.04,2020-3-03T06:41:35Z
2020-03-03T04:44:02Z,42.805,6.029,13.2974,4.60052,2470.007,2020-3-03T06:44:38Z
2020-03-03T04:47:05Z,42.805,6.029,13.2978,4.60007,2469.993,2020-3-03T06:47:41Z
2020-03-03T04:50:08Z,42.805,6.029,13.2983,4.60009,2470.03,2020-3-03T06:50:44Z
2020-03-03T04:53:11Z,42.805,6.029,13.2981,4.60021,2469.993,2020-3-03T06:53:47Z
2020-03-03T04:56:14Z,42.805,6.029,13.2981,4.60044,2470.03,2020-3-03T06:56:51Z
2020-03-03T04:59:18Z,42.805,6.029,13.2996,4.60031,2470.044,2020-3-03T06:59:54Z
2020-03-03T05:02:21Z,42.805,6.029,13.2994,4.60018,2470.053,2020-3-03T07:02:57Z
2020-03-03T05:05:24Z,42.805,6.029,13.3000,4.60046,2470.007,2020-3-03T07:06:00Z
2020-03-03T05:08:27Z,42.805,6.029,13.3008,4.60016,2470.03,2020-3-03T07:09:03Z
2020-03-03T05:11:30Z,42.805,6.029,13.2984,4.60081,2470.053,2020-3-03T07:12:07Z
2020-03-03T05:14:34Z,42.805,6.029,13.3000,4.60038,2470.007,2020-3-03T07:15:10Z
2020-03-03T05:17:37Z,42.805,6.029,13.3002,4.60011,2470.017,2020-3-03T07:18:13Z
2020-03-03T05:20:40Z,42.805,6.029,13.3011,4.60044,2469.993,2020-3-03T07:21:16Z
2020-03-03T05:23:43Z,42.805,6.029,13.3021,4.60069,2470.03,2020-3-03T07:24:20Z
2020-03-03T05:26:47Z,42.805,6.029,13.3052,4.60014,2470.007,2020-3-03T07:27:23Z
2020-03-03T05:29:50Z,42.805,6.029,13.3039,4.60052,2470.017,2020-3-03T07:30:26Z
2020-03-03T05:32:53Z,42.805,6.029,13.3036,4.60044,2469.993,2020-3-03T07:33:29Z
2020-03-03T05:35:56Z,42.805,6.029,13.3008,4.60053,2470.03,2020-3-03T07:36:32Z
2020-03-03T05:38:59Z,42.805,6.029,13.2991,4.60099,2469.993,2020-3-03T07:39:36Z
2020-03-03T05:42:03Z,42.805,6.029,13.2998,4.60073,2470.007,2020-3-03T07:42:39Z
2020-03-03T05:45:06Z,42.805,6.029,13.3014,4.60055,2469.97,2020-3-03T07:45:42Z
2020-03-03T05:48:09Z,42.805,6.029,13.3037,4.60040,2469.993,2020-3-03T07:48:45Z
2020-03-03T05:51:12Z,42.805,6.029,13.3034,4.60028,2470.03,2020-3-03T07:51:49Z
2020-03-03T05:54:15Z,42.805,6.029,13.3049,4.60025,2469.993,2020-3-03T07:54:52Z
2020-03-03T05:57:19Z,42.805,6.029,13.3049,4.60045,2469.984,2020-3-03T07:57:55Z
2020-03-03T06:00:22Z,42.805,6.029,13.3056,4.60026,2470.017,2020-3-03T08:00:58Z
2020-03-03T06:03:25Z,42.805,6.029,13.3006,4.60039,2470.007,2020-3-03T08:04:01Z
2020-03-03T06:06:28Z,42.805,6.029,13.3026,4.60011,2470.017,2020-3-03T08:07:05Z
2020-03-03T06:09:31Z,42.805,6.029,13.2986,4.60003,2470.007,2020-3-03T08:10:08Z
2020-03-03T06:12:35Z,42.805,6.029,13.2995,4.60015,2470.007,2020-3-03T08:13:11Z
2020-03-03T06:15:38Z,42.805,6.029,13.3029,4.60001,2469.993,2020-3-03T08:16:14Z
2020-03-03T06:18:41Z,42.805,6.029,13.3026,4.59993,2470.007,2020-3-03T08:19:17Z
2020-03-03T06:21:44Z,42.805,6.029,13.3041,4.60039,2469.947,2020-3-03T08:22:21Z
2020-03-03T06:24:48Z,42.805,6.029,13.2992,4.59996,2469.97,2020-3-03T08:25:24Z
2020-03-03T06:27:51Z,42.805,6.029,13.2999,4.60019,2469.993,2020-3-03T08:28:27Z
2020-03-03T06:30:54Z,42.805,6.029,13.3024,4.60006,2470.007,2020-3-03T08:31:30Z
2020-03-03T06:33:57Z,42.805,6.029,13.3019,4.60003,2469.993,2020-3-03T08:34:33Z
2020-03-03T06:37:00Z,42.805,6.029,13.3017,4.60011,2469.984,2020-3-03T08:37:37Z
2020-03-03T06:40:04Z,42.805,6.029,13.3003,4.60017,2470.03,2020-3-03T08:40:40Z
2020-03-03T06:43:07Z,42.805,6.029,13.3006,4.60001,2469.947,2020-3-03T08:43:43Z
2020-03-03T06:46:10Z,42.805,6.029,13.2999,4.60011,2469.97,2020-3-03T08:46:46Z
2020-03-03T06:49:13Z,42.805,6.029,13.3006,4.60022,2469.97,2020-3-03T08:49:49Z
2020-03-03T06:52:16Z,42.805,6.029,13.3021,4.60032,2470.007,2020-3-03T08:52:53Z
2020-03-03T06:55:20Z,42.805,6.029,13.3049,4.60011,2469.984,2020-3-03T08:55:56Z
2020-03-03T06:58:23Z,42.805,6.029,13.3042,4.60005,2469.947,2020-3-03T08:58:59Z
2020-03-03T07:01:26Z,42.805,6.029,13.3026,4.60023,2469.993,2020-3-03T09:02:02Z
2020-03-03T07:04:29Z,42.805,6.029,13.2988,4.60013,2470.017,2020-3-03T09:05:06Z
2020-03-03T07:07:32Z,42.805,6.029,13.3004,4.60037,2470.007,2020-3-03T09:08:09Z
2020-03-03T07:10:36Z,42.805,6.029,13.3008,4.60051,2470.007,2020-3-03T09:11:12Z
2020-03-03T07:13:39Z,42.805,6.029,13.3019,4.60039,2469.984,2020-3-03T09:14:15Z
2020-03-03T07:16:42Z,42.805,6.029,13.3047,4.60011,2470.007,2020-3-03T09:17:18Z
2020-03-03T07:19:45Z,42.805,6.029,13.3054,4.60019,2469.984,2020-3-03T09:20:22Z
2020-03-03T07:22:49Z,42.805,6.029,13.3050,4.60028,2469.993,2020-3-03T09:23:25Z
2020-03-03T07:25:52Z,42.805,6.029,13.3051,4.60053,2469.984,2020-3-03T09:26:28Z
2020-03-03T07:28:55Z,42.805,6.029,13.3051,4.60062,2470.007,2020-3-03T09:29:31Z
2020-03-03T07:31:58Z,42.805,6.029,13.2978,4.60073,2470.03,2020-3-03T09:32:34Z
2020-03-03T07:35:01Z,42.805,6.029,13.2974,4.60036,2470.007,2020-3-03T09:35:38Z
2020-03-03T07:38:05Z,42.805,6.029,13.2973,4.59998,2469.97,2020-3-03T09:38:41Z
2020-03-03T07:41:08Z,42.805,6.029,13.2965,4.59997,2469.984,2020-3-03T09:41:44Z
2020-03-03T07:44:11Z,42.805,6.029,13.2968,4.60021,2470.007,2020-3-03T09:44:47Z
2020-03-03T07:47:14Z,42.805,6.029,13.2967,4.60029,2470.007,2020-3-03T09:47:51Z
2020-03-03T07:50:18Z,42.805,6.029,13.2966,4.60013,2469.97,2020-3-03T09:50:54Z
2020-03-03T07:53:21Z,42.805,6.029,13.2968,4.60002,2469.993,2020-3-03T09:53:57Z
2020-03-03T07:56:24Z,42.805,6.029,13.2970,4.59995,2469.984,2020-3-03T09:57:00Z
2020-03-03T07:59:27Z,42.805,6.029,13.2970,4.59988,2469.97,2020-3-03T10:00:03Z
2020-03-03T08:02:30Z,42.805,6.029,13.2968,4.59986,2469.97,2020-3-03T10:03:07Z
2020-03-03T08:05:34Z,42.805,6.029,13.2968,4.59996,2470.007,2020-3-03T10:06:10Z
2020-03-03T08:08:37Z,42.805,6.029,13.2968,4.59984,2469.984,2020-3-03T10:09:13Z
2020-03-03T08:11:40Z,42.805,6.029,13.2970,4.59988,2470.007,2020-3-03T10:12:16Z
2020-03-03T08:14:43Z,42.805,6.029,13.2967,4.59993,2469.97,2020-3-03T10:15:20Z
2020-03-03T08:17:47Z,42.805,6.029,13.2967,4.59982,2469.979,2020-3-03T10:18:23Z
2020-03-03T08:20:50Z,42.805,6.029,13.2963,4.59982,2470.007,2020-3-03T10:21:26Z
2020-03-03T08:23:53Z,42.805,6.029,13.2964,4.59982,2469.993,2020-3-03T10:24:29Z
2020-03-03T08:26:56Z,42.805,6.029,13.2965,4.59981,2469.97,2020-3-03T10:27:32Z
2020-03-03T08:29:59Z,42.805,6.029,13.2968,4.59978,2470.007,2020-3-03T10:30:36Z
2020-03-03T08:33:03Z,42.805,6.029,13.2966,4.59989,2470.017,2020-3-03T10:33:39Z
2020-03-03T08:36:06Z,42.805,6.029,13.2966,4.59973,2470.007,2020-3-03T10:36:42Z
2020-03-03T08:39:09Z,42.805,6.029,13.2971,4.59983,2470.007,2020-3-03T10:39:45Z
2020-03-03T08:42:12Z,42.805,6.029,13.2969,4.59976,2469.993,2020-3-03T10:42:48Z
2020-03-03T08:45:16Z,42.805,6.029,13.2968,4.59971,2469.993,2020-3-03T10:45:52Z
2020-03-03T08:48:19Z,42.805,6.029,13.2970,4.59980,2469.984,2020-3-03T10:48:55Z
2020-03-03T08:51:22Z,42.805,6.029,13.2971,4.59981,2469.993,2020-3-03T10:51:58Z
2020-03-03T08:54:25Z,42.805,6.029,13.2964,4.59974,2469.993,2020-3-03T10:55:02Z
2020-03-03T08:57:29Z,42.805,6.029,13.2968,4.59971,2470.03,2020-3-03T10:58:05Z
2020-03-03T09:00:32Z,42.805,6.029,13.2962,4.59984,2469.993,2020-3-03T11:01:08Z
2020-03-03T09:03:35Z,42.805,6.029,13.2968,4.59978,2470.007,2020-3-03T11:04:11Z
2020-03-03T09:06:38Z,42.805,6.029,13.2971,4.59978,2470.017,2020-3-03T11:07:14Z
2020-03-03T09:09:41Z,42.805,6.029,13.2967,4.59976,2469.993,2020-3-03T11:10:18Z
2020-03-03T09:12:45Z,42.805,6.029,13.2968,4.59979,2469.993,2020-3-03T11:13:21Z
2020-03-03T09:15:48Z,42.805,6.029,13.2968,4.59974,2470.017,2020-3-03T11:16:24Z
2020-03-03T09:18:51Z,42.805,6.029,13.2967,4.59975,2470.007,2020-3-03T11:19:27Z
2020-03-03T09:21:54Z,42.805,6.029,13.2968,4.59973,2469.993,2020-3-03T11:22:31Z
2020-03-03T09:24:58Z,42.805,6.029,13.2970,4.59976,2469.993,2020-3-03T11:25:34Z
2020-03-03T09:28:01Z,42.805,6.029,13.2966,4.59973,2470.017,2020-3-03T11:28:37Z
2020-03-03T09:31:04Z,42.805,6.029,13.2967,4.59975,2470.017,2020-3-03T11:31:40Z
2020-03-03T09:34:07Z,42.805,6.029,13.2964,4.59972,2469.993,2020-3-03T11:34:43Z
2020-03-03T09:37:10Z,42.805,6.029,13.2965,4.59979,2470.007,2020-3-03T11:37:47Z
2020-03-03T09:40:14Z,42.805,6.029,13.2968,4.59971,2469.993,2020-3-03T11:40:50Z
2020-03-03T09:43:17Z,42.805,6.029,13.2968,4.59970,2469.993,2020-3-03T11:43:53Z
2020-03-03T09:46:20Z,42.805,6.029,13.2964,4.59972,2469.97,2020-3-03T11:46:56Z
2020-03-03T09:49:23Z,42.805,6.029,13.2971,4.59970,2469.993,2020-3-03T11:50:00Z
2020-03-03T09:52:27Z,42.805,6.029,13.2969,4.59972,2469.993,2020-3-03T11:53:03Z
2020-03-03T09:55:30Z,42.805,6.029,13.2967,4.59971,2469.993,2020-3-03T11:56:06Z
2020-03-03T09:58:33Z,42.805,6.029,13.2964,4.59975,2469.984,2020-3-03T11:59:09Z
2020-03-03T10:01:36Z,42.805,6.029,13.2967,4.59974,2470.017,2020-3-03T12:02:12Z
2020-03-03T10:04:39Z,42.805,6.029,13.2965,4.59973,2469.993,2020-3-03T12:05:16Z
2020-03-03T10:07:43Z,42.805,6.029,13.2964,4.59971,2469.97,2020-3-03T12:08:19Z
2020-03-03T10:10:46Z,42.805,6.029,13.2968,4.59969,2470.007,2020-3-03T12:11:22Z
2020-03-03T10:13:49Z,42.805,6.029,13.2968,4.59971,2470.017,2020-3-03T12:14:25Z
2020-03-03T10:16:52Z,42.805,6.029,13.2968,4.59969,2470.007,2020-3-03T12:17:29Z
2020-03-03T10:19:56Z,42.805,6.029,13.2967,4.59971,2469.993,2020-3-03T12:20:32Z
2020-03-03T10:22:59Z,42.805,6.029,13.2968,4.59970,2469.993,2020-3-03T12:23:35Z
2020-03-03T10:26:02Z,42.805,6.029,13.2967,4.59969,2469.993,2020-3-03T12:26:38Z
2020-03-03T10:29:05Z,42.805,6.029,13.2966,4.59970,2469.993,2020-3-03T12:29:42Z
2020-03-03T10:32:09Z,42.805,6.029,13.2968,4.59970,2470.03,2020-3-03T12:32:45Z
2020-03-03T10:35:12Z,42.805,6.029,13.2967,4.59972,2470.017,2020-3-03T12:35:48Z
2020-03-03T10:38:15Z,42.805,6.029,13.2967,4.59970,2470.03,2020-3-03T12:38:51Z
2020-03-03T10:41:18Z,42.805,6.029,13.2968,4.59971,2470.017,2020-3-03T12:41:55Z
2020-03-03T10:44:22Z,42.805,6.029,13.2967,4.59978,2470.007,2020-3-03T12:44:58Z
2020-03-03T10:47:25Z,42.805,6.029,13.2967,4.59978,2470.017,2020-3-03T12:48:01Z
2020-03-03T10:50:28Z,42.805,6.029,13.2967,4.59970,2470.03,2020-3-03T12:51:04Z
2020-03-03T10:53:31Z,42.805,6.029,13.2968,4.59972,2470.03,2020-3-03T12:54:07Z
2020-03-03T10:56:34Z,42.805,6.029,13.2968,4.59970,2470.04,2020-3-03T12:57:11Z
2020-03-03T10:59:38Z,42.805,6.029,13.2968,4.59970,2469.993,2020-3-03T13:00:14Z
2020-03-03T11:02:41Z,42.805,6.029,13.2966,4.59971,2470.017,2020-3-03T13:03:17Z
2020-03-03T11:05:44Z,42.805,6.029,13.2968,4.59973,2469.993,2020-3-03T13:06:20Z
2020-03-03T11:08:47Z,42.805,6.029,13.2968,4.59970,2469.993,2020-3-03T13:09:23Z
2020-03-03T11:11:50Z,42.805,6.029,13.2974,4.59970,2470.017,2020-3-03T13:12:27Z
2020-03-03T11:14:54Z,42.805,6.029,13.2967,4.59976,2469.993,2020-3-03T13:15:30Z
2020-03-03T11:17:57Z,42.805,6.029,13.2970,4.59970,2470.017,2020-3-03T13:18:33Z
2020-03-03T11:21:00Z,42.805,6.029,13.2964,4.59973,2470.017,2020-3-03T13:21:36Z
2020-03-03T11:24:03Z,42.805,6.029,13.2971,4.59973,2470.017,2020-3-03T13:24:39Z
2020-03-03T11:27:06Z,42.805,6.029,13.2967,4.59972,2470.03,2020-3-03T13:27:43Z
2020-03-03T11:30:10Z,42.805,6.029,13.2968,4.59971,2470.007,2020-3-03T13:30:46Z
2020-03-03T11:33:13Z,42.805,6.029,13.2964,4.59972,2470.04,2020-3-03T13:33:49Z
2020-03-03T11:36:16Z,42.805,6.029,13.2964,4.59976,2470.017,2020-3-03T13:36:52Z
2020-03-03T11:39:19Z,42.805,6.029,13.2968,4.59970,2470.03,2020-3-03T13:39:56Z
2020-03-03T11:42:23Z,42.805,6.029,13.2968,4.59971,2470.017,2020-3-03T13:42:59Z
2020-03-03T11:45:26Z,42.805,6.029,13.2968,4.59978,2470.03,2020-3-03T13:46:02Z
2020-03-03T11:48:29Z,42.805,6.029,13.2969,4.59971,2470.053,2020-3-03T13:49:05Z
2020-03-03T11:51:32Z,42.805,6.029,13.2964,4.59968,2470.017,2020-3-03T13:52:08Z
2020-03-03T11:54:35Z,42.805,6.029,13.2967,4.59967,2470.017,2020-3-03T13:55:12Z
2020-03-03T11:57:39Z,42.805,6.029,13.2968,4.59973,2470.017,2020-3-03T13:58:15Z
2020-03-03T12:00:42Z,42.805,6.029,13.2968,4.59968,2470.03,2020-3-03T14:01:18Z
2020-03-03T12:03:45Z,42.805,6.029,13.2973,4.59971,2470.04,2020-3-03T14:04:21Z
2020-03-03T12:06:48Z,42.805,6.029,13.2968,4.59966,2470.053,2020-3-03T14:07:24Z
2020-03-03T12:09:51Z,42.805,6.029,13.2965,4.59970,2470.017,2020-3-03T14:10:28Z
2020-03-03T12:12:55Z,42.805,6.029,13.2969,4.59968,2470.04,2020-3-03T14:13:31Z
2020-03-03T12:15:58Z,42.805,6.029,13.2968,4.59968,2470.053,2020-3-03T14:16:34Z
2020-03-03T12:19:01Z,42.805,6.029,13.2966,4.59973,2470.04,2020-3-03T14:19:37Z
2020-03-03T12:22:04Z,42.805,6.029,13.2968,4.59968,2469.993,2020-3-03T14:22:40Z
2020-03-03T12:25:07Z,42.805,6.029,13.2965,4.59973,2469.993,2020-3-03T14:25:44Z
2020-03-03T12:28:11Z,42.805,6.029,13.2970,4.59968,2470.007,2020-3-03T14:28:47Z
2020-03-03T12:31:14Z,42.805,6.029,13.2967,4.59968,2470.03,2020-3-03T14:31:50Z
2020-03-03T12:34:17Z,42.805,6.029,13.2964,4.59968,2470.03,2020-3-03T14:34:53Z
2020-03-03T12:37:20Z,42.805,6.029,13.2967,4.59968,2470.017,2020-3-03T14:37:57Z
2020-03-03T12:40:24Z,42.805,6.029,13.2969,4.59968,2470.007,2020-3-03T14:41:00Z
2020-03-03T12:43:27Z,42.805,6.029,13.2966,4.59968,2470.03,2020-3-03T14:44:03Z
2020-03-03T12:46:30Z,42.805,6.029,13.2964,4.59968,2470.04,2020-3-03T14:47:07Z
2020-03-03T12:49:34Z,42.805,6.029,13.2966,4.59968,2470.03,2020-3-03T14:50:10Z
2020-03-03T12:52:37Z,42.805,6.029,13.2967,4.59968,2470.03,2020-3-03T14:53:13Z
2020-03-03T12:55:40Z,42.805,6.029,13.2970,4.59976,2469.993,2020-3-03T14:56:16Z
2020-03-03T12:58:43Z,42.805,6.029,13.2970,4.59968,2469.993,2020-3-03T14:59:19Z
2020-03-03T13:01:46Z,42.805,6.029,13.2967,4.59968,2470.017,2020-3-03T15:02:23Z
2020-03-03T13:04:50Z,42.805,6.029,13.2964,4.59969,2470.017,2020-3-03T15:05:26Z
2020-03-03T13:07:53Z,42.805,6.029,13.2968,4.59968,2469.993,2020-3-03T15:08:29Z
2020-03-03T13:10:56Z,42.805,6.029,13.2966,4.59968,2469.993,2020-3-03T15:11:32Z
2020-03-03T13:13:59Z,42.805,6.029,13.2966,4.59968,2470.017,2020-3-03T15:14:35Z
2020-03-03T13:17:02Z,42.805,6.029,13.2968,4.59969,2470.007,2020-3-03T15:17:39Z
2020-03-03T13:20:06Z,42.805,6.029,13.2971,4.59969,2470.007,2020-3-03T15:20:42Z
2020-03-03T13:23:09Z,42.805,6.029,13.2969,4.59969,2470.007,2020-3-03T15:23:45Z
2020-03-03T13:26:12Z,42.805,6.029,13.2966,4.59968,2469.993,2020-3-03T15:26:48Z
2020-03-03T13:29:15Z,42.805,6.029,13.2968,4.59970,2470.017,2020-3-03T15:29:52Z
2020-03-03T13:32:19Z,42.805,6.029,13.2967,4.59969,2470.017,2020-3-03T15:32:55Z
2020-03-03T13:35:22Z,42.805,6.029,13.2967,4.59968,2469.993,2020-3-03T15:35:58Z
2020-03-03T13:38:25Z,42.805,6.029,13.2968,4.59968,2470.017,2020-3-03T15:39:01Z
2020-03-03T13:41:28Z,42.805,6.029,13.2967,4.59968,2470.007,2020-3-03T15:42:04Z
2020-03-03T13:44:31Z,42.805,6.029,13.2968,4.59968,2469.984,2020-3-03T15:45:07Z
2020-03-03T13:47:34Z,42.805,6.029,13.2967,4.59970,2470.03,2020-3-03T15:48:11Z
2020-03-03T13:50:38Z,42.805,6.029,13.2966,4.59968,2469.97,2020-3-03T15:51:14Z
2020-03-03T13:53:41Z,42.805,6.029,13.2964,4.59974,2469.979,2020-3-03T15:54:17Z
2020-03-03T13:56:44Z,42.805,6.029,13.2969,4.59968,2469.993,2020-3-03T15:57:20Z
2020-03-03T13:59:47Z,42.805,6.029,13.2967,4.59968,2469.984,2020-3-03T16:00:23Z
2020-03-03T14:02:50Z,42.805,6.029,13.2968,4.59973,2470.007,2020-3-03T16:03:27Z
2020-03-03T14:05:54Z,42.805,6.029,13.2970,4.59968,2470.017,2020-3-03T16:06:30Z
2020-03-03T14:08:57Z,42.805,6.029,13.2967,4.59969,2470.03,2020-3-03T16:09:33Z
2020-03-03T14:12:00Z,42.805,6.029,13.2970,4.59969,2469.97,2020-3-03T16:12:36Z
2020-03-03T14:15:03Z,42.805,6.029,13.2968,4.59968,2469.993,2020-3-03T16:15:40Z
2020-03-03T14:18:07Z,42.805,6.029,13.2970,4.59968,2469.993,2020-3-03T16:18:43Z
2020-03-03T14:21:10Z,42.805,6.029,13.2966,4.59967,2469.993,2020-3-03T16:21:46Z
2020-03-03T14:24:13Z,42.805,6.029,13.2969,4.59968,2470.04,2020-3-03T16:24:49Z
2020-03-03T14:27:16Z,42.805,6.029,13.2964,4.59967,2469.97,2020-3-03T16:27:52Z
2020-03-03T14:30:19Z,42.805,6.029,13.2965,4.59968,2470.077,2020-3-03T16:30:56Z
2020-03-03T14:33:23Z,42.805,6.029,13.2967,4.59969,2470.007,2020-3-03T16:33:59Z
2020-03-03T14:36:26Z,42.805,6.029,13.2968,4.59968,2469.993,2020-3-03T16:37:02Z
2020-03-03T14:39:29Z,42.805,6.029,13.2971,4.59968,2470.007,2020-3-03T16:40:05Z
2020-03-03T14:42:32Z,42.805,6.029,13.2971,4.59967,2469.984,2020-3-03T16:43:08Z
2020-03-03T14:45:35Z,42.805,6.029,13.2967,4.59968,2470.007,2020-3-03T16:46:12Z
2020-03-03T14:48:39Z,42.805,6.029,13.2968,4.59969,2469.993,2020-3-03T16:49:15Z
2020-03-03T14:51:42Z,42.805,6.029,13.2970,4.59973,2469.97,2020-3-03T16:52:18Z
2020-03-03T14:54:45Z,42.805,6.029,13.2966,4.59971,2469.984,2020-3-03T16:55:21Z
2020-03-03T14:57:48Z,42.805,6.029,13.2970,4.59973,2469.96,2020-3-03T16:58:24Z
2020-03-03T15:00:51Z,42.805,6.029,13.2967,4.59968,2469.993,2020-3-03T17:01:28Z
2020-03-03T15:03:55Z,42.805,6.029,13.2967,4.59968,2469.984,2020-3-03T17:04:31Z
2020-03-03T15:06:58Z,42.805,6.029,13.2968,4.59968,2469.97,2020-3-03T17:07:34Z
2020-03-03T15:10:01Z,42.805,6.029,13.2968,4.59968,2469.993,2020-3-03T17:10:37Z
2020-03-03T15:13:04Z,42.805,6.029,13.2965,4.59968,2470.03,2020-3-03T17:13:41Z